Caldwell, NJ

9:01 AM EDT on September 19, 2019 (GMT -0400)
Essex County

Weather History for KCDW - May, 2019

Change the Weather History Date:

Friday, May 10, 2019

  Actual Average Record
Temperature  
Mean Temperature 66 °F -  
Max Temperature 77 °F 66 °F 90 °F (1979)
Min Temperature 55 °F 44 °F 28 °F (1983)
Cooling Degree Days 1    
Growing Degree Days 16 (Base 50)    
Moisture  
Dew Point 59 °F    
Average Humidity 81    
Maximum Humidity 97    
Minimum Humidity 60    
Precipitation  
Precipitation 0.03 in - - ()
Sea Level Pressure  
Sea Level Pressure 30.04 in    
Wind  
Wind Speed 4 mph (SSW)    
Max Wind Speed 7 mph    
Max Gust Speed 16 mph    
Visibility 8 miles    
Events Rain    
Averages and records for this station are not official NWS values.
T = Trace of Precipitation, MM = Missing Value Source: NWS Daily Summary

Daily Weather History Graph

Daily Weather History Graph

Search for Another Location

Airport or City:

Astronomy

May. 10, 2019 Rise Set
Actual Time 5:44 AM EDT 8:02 PM EDT
Civil Twilight 5:14 AM EDT 8:33 PM EDT
Nautical Twilight 4:36 AM EDT 9:11 PM EDT
Astronomical Twilight 3:54 AM EDT 9:53 PM EDT
Moon 10:41 AM EDT (5/10) 12:54 AM EDT (5/10)
Length of Visible Light 15h 19m
Length of Day
14h 17m
Waxing Crescent, 35% of the Moon is Illuminated
May 10
Waxing Crescent
May 11
First Quarter
May 18
Full
May 26
Last Quarter
Jun 3
New

Hourly Weather History & Observations

Time (EDT) Temp. Dew Point Humidity Pressure Visibility Wind Dir Wind Speed Gust Speed Precip Events Conditions
12:53 AM 57.0 °F 46.9 °F 69% 30.24 in 10.0 mi Variable 3.5 mph - N/A   Overcast
1:53 AM 55.9 °F 48.9 °F 77% 30.21 in 10.0 mi Variable 4.6 mph 16.1 mph N/A   Overcast
2:53 AM 55.9 °F 48.9 °F 77% 30.18 in 10.0 mi Variable 3.5 mph - N/A   Overcast
3:15 AM 55.9 °F 50.0 °F 80% 30.17 in 10.0 mi ESE 5.8 mph - N/A   Overcast
3:53 AM 55.9 °F 51.1 °F 84% 30.18 in 10.0 mi ESE 3.5 mph - N/A   Overcast
4:53 AM 55.9 °F 53.1 °F 90% 30.14 in 9.0 mi Variable 3.5 mph - N/A   Overcast
5:53 AM 57.0 °F 54.0 °F 89% 30.14 in 8.0 mi Variable 3.5 mph - N/A   Overcast
6:53 AM 57.0 °F 55.9 °F 96% 30.14 in 5.0 mi East 4.6 mph - 0.00 in   Overcast
7:53 AM 57.9 °F 57.0 °F 97% 30.10 in 3.0 mi Calm Calm - N/A   Overcast
8:53 AM 60.1 °F 57.9 °F 93% 30.08 in 4.0 mi East 4.6 mph - N/A   Overcast
9:39 AM 64.0 °F 60.1 °F 87% 30.04 in 5.0 mi Variable 3.5 mph - N/A   Mostly Cloudy
9:53 AM 64.0 °F 60.1 °F 87% 30.05 in 7.0 mi South 3.5 mph - N/A   Mostly Cloudy
10:53 AM 66.0 °F 61.0 °F 84% 30.05 in 7.0 mi South 4.6 mph - N/A   Mostly Cloudy
11:53 AM 66.9 °F 61.0 °F 81% 30.02 in 9.0 mi Calm Calm - N/A   Overcast
12:00 PM 66.9 °F 61.0 °F 81% 30.00 in 9.0 mi ENE 3.5 mph - N/A   Overcast
12:53 PM 69.1 °F 63.0 °F 81% 30.01 in 2.5 mi SW 5.8 mph - 0.01 in Rain Light Rain
1:12 PM 66.9 °F 64.9 °F 93% 29.99 in 5.0 mi Variable 3.5 mph - 0.02 in Rain Light Rain
1:53 PM 68.0 °F 64.0 °F 87% 30.00 in 10.0 mi Variable 3.5 mph - 0.02 in   Overcast
2:53 PM 72.0 °F 64.0 °F 76% 29.97 in 10.0 mi WSW 5.8 mph - N/A   Overcast
3:53 PM 73.9 °F 64.0 °F 71% 29.96 in 10.0 mi Variable 5.8 mph - N/A   Overcast
4:53 PM 75.9 °F 63.0 °F 64% 29.94 in 10.0 mi Variable 3.5 mph - N/A   Mostly Cloudy
5:53 PM 77.0 °F 63.0 °F 62% 29.93 in 10.0 mi WSW 5.8 mph - N/A   Partly Cloudy
6:53 PM 77.0 °F 62.1 °F 60% 29.92 in 10.0 mi WSW 5.8 mph - N/A   Mostly Cloudy
7:53 PM 75.0 °F 63.0 °F 66% 29.94 in 10.0 mi WSW 6.9 mph - N/A   Clear
8:53 PM 72.0 °F 64.0 °F 76% 29.94 in 10.0 mi Variable 4.6 mph - N/A   Clear
9:53 PM 70.0 °F 64.0 °F 81% 29.94 in 10.0 mi WSW 3.5 mph - N/A   Clear
10:53 PM 69.1 °F 64.9 °F 87% 29.94 in 10.0 mi Variable 3.5 mph - N/A   Clear
11:53 PM 68.0 °F 64.9 °F 90% 29.96 in 10.0 mi NNW 5.8 mph - N/A   Overcast